星链-3255 (STARLINK-3255 )

导读

STARLINK-3255是美国SpaceX公司星链项目的低轨通信卫星,于2021年12月18日发射入轨,属于星链V1.5批次卫星。星链旨在为全球提供覆盖广泛的高速宽带互联网服务,该卫星搭载激光星间链路,采用氪工质霍尔推进器,具备自主避撞能力,设计寿命5-7年,退役后将主动离轨在大气层焚毁,助力星链低轨通信星座的全球组网布局。

基本信息
目录编号:
50201
目录名称:
STARLINK-3255
国际标识:
2021-125AX
轨道中心:
EARTH
卫星名称:
星链-3255
卫星全名:
星链-3255 (STARLINK-3255 )
卫星状态:
已陨落 最后检测时间 2026-06-03
发射日期:
2021-12-18 UTC
国别 :
美国 (US)
星等 :
--
该卫星已列入 空间交会检测服务 Space Conjunction Data Service (SCDS) ,当前飞行风险评估等级: 无高风险
轨道信息
数据来源 国际轨道数据
星历时间: 2026-06-03T13:08:21+0800
轨道信息已过期100天
半长轴: 6531.985km
偏心率: 0.0006095
轨道倾角: 53.171°
近地点辐角 257.768°
升交点赤经 64.672°
平近点角 102.269°
近地点: 149.866km
远地点: 157.83km
周期: 87.564分钟
每日圈数: 16.445045
详细信息
固有亮度:
5
最大亮度:
2.5
卫星平台:
Starlink v1.5
覆盖范围:
全球
运营商:
太空探索技术公司
运营商所在国:
美国
制造商(研发单位):
太空探索技术公司
制造商所在国:
美国
使用方式:
暂无
卫星简介
星链(Starlink)计划是由太空探索技术公司(SpaceX)提出的一个巨型低轨卫星互联网星座项目,计划在2019年至2024年间在太空搭建由约1.2万颗卫星组成的“星链”网络,其中1584颗将部署在地球上空550千米处的近地轨道,并从2020年开始工作。该卫星仍在工作。
与全量物体交会距离演化趋势
与全量物体交会风险概率演化趋势